THOR ALTAIR DEB, 2177

Orbit data source: Space-Track

THOR ALTAIR DEB, 2177 is space debris in SSO originally from a launch on Thu, 31 Mar 1966 UTC launched from the Air Force Western Test Range (AFWTR). Debris objects in space refer to the collection of defunct objects orbiting the Earth. Examples of debris include non-operational satellites, rocket bodies, and fragments generated from explosions, collisions, or faulty payload assembly.

Loading next visibility...
THOR ALTAIR DEB details
Identifier
2177, 1966-026D
Orbit
SSO
Last TLE update4 hours ago
Origin
Flag of USUSAF SSD (US)
ManufacturerUnknown
MissionSpacecraft
Bus & MotorUnknown
MassUnknown
Launch date (UTC)
1966-03-31 (59 years ago)
Launch vehicleUnknown
Launch site
Air Force Western Test Range (AFWTR)
Object type
Payload
Rocket body
Debris
Shape & HBRUnknown
Radar Cross SectionSmall (<0.1 m²)

Expand to show TLE details & history

TLE from 4 hours ago
0 THOR ALTAIR DEB
1  2177U 66026D   25044.49782848  .00005867  00000-0  74615-3 0  9994
2  2177  98.9253 337.0940 0140694  86.6887 275.0403 14.75260138 91185
Epoch: 2025-02-13T11:56Z
Definitive object data (Epoch: 2025-02-13T11:56:52.38Z)
Latitude-0.00003°
Longitude14.10267°
Altitude640.009 km
Speed7.542 km/s
True Right ascension22h 28m 22s
True Declination0° 00' 00"
Sunlit
Object was in daylight at TLE epoch
Visualization TLE readout
Latitude-0.24673°
Longitude-165.74961°
Altitude652.787 km
Speed7.528 km/s
Apparent Right ascension08h 55m 01s
Apparent Declination-21° 23' 46"
Sunlit
Object is in full shadow
Visualization observer readout
Local Sidereal Time18:35:27
Azimuth291.542° WNW
Elevation-55.069°
Doppler factor1
Orbital elements
Apogee altitude740.182 km
Perigee altitude542.66 km
Semi-major axis7,019.558 km
Eccentricity0.0140694
Inclination98.9253°
RAAN337.094°
Arg. of periapsis86.6887°
True anomaly273.43203°
Mean anomaly275.0403°
Eccentric anomaly274.23639°
Mean motion3.69044 °/min
BSTAR0.00074615
Orbital period97.55 mins
Loading maneuver chart data...
Loading historical data...
Loading historical data...
Loading historical data...
Loading historical data...
Loading historical data...
Loading historical data...
Loading historical data...

THOR ALTAIR DEB Visibility forecast

Observer location: undefined°, undefined

Span
Click to sort rows by Start time (UTC) header in descending order
Start Az.
Max El. time (UTC)
Max El. Az.
Max El.
End time (UTC)
End Az.
6 mins2025-02-13 18:36:10.224Z121.598° SE2025-02-13 18:39:10.224Z65.815° ENE24.064°2025-02-13 18:42:10.224Z13.194° NNE
4 mins2025-02-13 20:14:10.224Z235.246° WSW2025-02-13 20:15:10.224Z255.104° W20.148°2025-02-13 20:18:10.224Z309.585° NW
6 mins2025-02-14 08:04:10.224Z36.282° NE2025-02-14 08:06:10.224Z105.636° ESE38.998°2025-02-14 08:10:10.224Z179.895° S
|